This is the latest recevied weather packets stored in our database for station/object KK6MIG-13. If no packets are shown the sender has not sent any weather packets the latest 10 day(s).
| Time | Temp. | Humidity | Pressure | Rain* | Wind** | Luminosity | Snow |
|---|---|---|---|---|---|---|---|
| 1778096312 | 15.56° C | 1% | 1019.4 hPa | 0 mm | - | 970 W/m² | - |
| 1778096253 | 15.56° C | 1% | 1019.4 hPa | 0 mm | - | 991 W/m² | - |
| 1778096249 | 15.56° C | 1% | 1019.4 hPa | 0 mm | - | 780 W/m² | - |
| 1778096125 | 15.56° C | 1% | 1019.4 hPa | 0 mm | - | 991 W/m² | - |
| 1778096066 | 15.56° C | 1% | 1019.5 hPa | 0 mm | - | 976 W/m² | - |
| 1778096006 | 15.56° C | 1% | 1019.4 hPa | 0 mm | - | 976 W/m² | - |
| 1778095939 | 15.56° C | 1% | 1019.4 hPa | 0 mm | - | 976 W/m² | - |
| 1778095879 | 16.11° C | 1% | 1019.4 hPa | 0 mm | - | 974 W/m² | - |
| 1778095820 | 15.56° C | 1% | 1019.4 hPa | 0 mm | - | 965 W/m² | - |
| 1778095759 | 15.56° C | 2% | 1019.5 hPa | 0 mm | - | 967 W/m² | - |
| 1778095699 | 15.56° C | 1% | 1019.4 hPa | 0 mm | - | 970 W/m² | - |
| 1778095634 | 16.11° C | 1% | 1019.5 hPa | 0 mm | - | 1011 W/m² | - |
| 1778095574 | 16.11° C | 1% | 1019.5 hPa | 0 mm | - | 958 W/m² | - |
| 1778095513 | 16.11° C | 1% | 1019.5 hPa | 0 mm | - | 954 W/m² | - |
| 1778095453 | 15.56° C | 1% | 1019.5 hPa | 0 mm | - | 954 W/m² | - |
| 1778095393 | 15.56° C | 5% | 1019.5 hPa | 0 mm | - | 1071 W/m² | - |
| 1778095336 | 16.11° C | 2% | 1019.5 hPa | 0 mm | - | 1020 W/m² | - |
| 1778095332 | 16.11° C | 7% | 1019.5 hPa | 0 mm | - | 1071 W/m² | - |
| 1778095207 | 16.11° C | 2% | 1019.5 hPa | 0 mm | - | 991 W/m² | - |
| 1778095147 | 16.11° C | 3% | 1019.5 hPa | 0 mm | - | 991 W/m² | - |
| 1778095088 | 16.11° C | 3% | 1019.5 hPa | 0 mm | - | 991 W/m² | - |
| 1778095022 | 16.11° C | 1% | 1019.5 hPa | 0 mm | - | 960 W/m² | - |
| 1778094961 | 16.11° C | 1% | 1019.5 hPa | 0 mm | - | 947 W/m² | - |
| 1778094901 | 16.11° C | 1% | 1019.5 hPa | 0 mm | - | 949 W/m² | - |
| 1778094841 | 16.11° C | 1% | 1019.5 hPa | 0 mm | - | 954 W/m² | - |
* Rain latest hour (hover to see other rain measurements)
** Current wind speed in m/s (hover to see current wind gust speed)